Regional Weather Roundup
Issued by NWS State College, PA

Home | Current Version | Previous Version | Text Only | Print | Product List | Glossary On
Versions: 1 2 3 4 5 6 7 8 9 10 11 12 13 14 15 16 17 18 19 20 21 22 23 24 25 26 27 28 29 30 31 32 33 34 35 36 37 38 39 40 41 42 43 44 45 46 47 48 49 50
509
ASUS41 KCTP 270603
RWRCTP

REGIONAL WEATHER ROUNDUP
NATIONAL WEATHER SERVICE STATE COLLEGE PA
200 AM EDT THU APR 27 2017

Note: "fair" indicates few or no clouds below 12,000 feet with no
significant weather and/or obstructions to visibility.

* = STATION THAT DOES NOT REPORT PRECIPITATION /E.G. RAIN...SNOW...ETC/
    THUNDER OR FOG.

PAZ002>004-007>009-013>016-020>023-029>032-270700-
WESTERN PENNSYLVANIA

CITY           SKY/WX    TMP DP  RH WIND       PRES   REMARKS
ERIE           CLOUDY    67  55  65 SE14      29.65F
MEADVILLE      CLEAR     65  55  70 VRB3      29.70S
FRANKLIN*      CLEAR     59  52  77 SE9       29.73S
NEW CASTLE     FAIR      60  55  83 CALM      29.69F
BEAVER COUNTY  NOT AVBL
BUTLER*        CLEAR     63  55  77 SE5       29.71F
PITTSBURGH INT PTCLDY    63  57  81 SE5       29.69F
PITTSBURGH     CLEAR     64  55  72 SE8       29.69F
INDIANA*       CLEAR     64  57  77 S5        29.77S
LATROBE        CLEAR     57  55  94 CALM      29.72F
WASHINGTON CO* CLEAR     54  52  94 CALM      29.71F
$$

PAZ004>006-010>012-017>019-024>028-033>037-041-042-045-046-049>053-270700-
CENTRAL PENNSYLVANIA

CITY           SKY/WX    TMP DP  RH WIND       PRES   REMARKS
BRADFORD       CLEAR     57  54  89 SE7       29.77F
DUBOIS         CLEAR     60  53  77 SE9       29.75F
CLEARFIELD     CLEAR     56  55  97 N6        29.78F
JOHNSTOWN      CLEAR     60  56  86 S8        29.78F
ALTOONA        CLEAR     60  56  86 S6        29.80F
STATE COLLEGE  CLEAR     59  56  88 SW6       29.80S
WILLIAMSPORT   CLOUDY    63  57  81 NE7       29.79S
SELINSGROVE    CLEAR     54  54 100 CALM      29.82S FOG
FT INDIANTOWN  FOG       52  52 100 CALM      29.83F VSB 1/4
CAPITAL CITY   CLEAR     56  53  90 CALM      29.83S
HARRISBURG     PTCLDY    56  56 100 E5        29.83S
YORK           CLEAR     55  55 100 CALM      29.83S FOG
$$

PAZ038>040-043-044-047-048-054-055-060>062-067>071-270700-
EASTERN PENNSYLVANIA

CITY           SKY/WX    TMP DP  RH WIND       PRES   REMARKS
SCRANTON       MOCLDY    58  55  90 CALM      29.83S
MOUNT POCONO   CLOUDY    54  54 100 SE3       29.86S FOG
ALLENTOWN      CLOUDY    62  55  77 S3        29.85S
QUAKERTOWN*    CLOUDY    59  57  94 CALM      29.86S
READING        CLOUDY    62  59  90 S3        29.83F
LANCASTER      FOG       55  55 100 CALM      29.84F VSB 1/4
COATESVILLE    CLOUDY    59  59 100 CALM      29.87S FOG
POTTSTOWN      CLOUDY    59  56  89 CALM      29.86S
BLUE BELL      CLOUDY    57  57 100 CALM      29.87S
DOYLESTOWN     CLOUDY    59  58  96 CALM      29.84F
WILLOW GROVE   NOT AVBL
NORTH PHILA    CLOUDY    62  57  83 CALM      29.86F
PHILADELPHIA   CLOUDY    62  56  80 CALM      29.85F
$$




USA.gov is the U.S. government's official web portal to all federal, state and local government web resources and services.